Regional Weather Roundup
Issued by NWS

Home | Current Version | Previous Version | Graphics & Text | Print | Product List | Glossary On
Versions: 1 2 3 4 5 6 7 8 9 10 11 12 13 14 15 16 17 18 19 20 21 22 23 24 25 26 27 28 29 30 31 32 33 34 35 36 37 38 39 40 41 42 43 44 45 46 47 48 49 50
000
ASUS45 KABQ 281410
RWRNM
WEATHER ROUNDUP FOR NEW MEXICO
NATIONAL WEATHER SERVICE ALBUQUERQUE NM
700 AM MST WED JAN 28 2015

NOTE: "FAIR" MEANS FEW OR NO CLOUDS BELOW 12,000 FEET AGL WITH NO
       SIGNIFICANT WEATHER OR OBSTRUCTIONS TO VISION.

      THIS PRODUCT IS RELEASED AS TWO VERSIONS.  ONE VERSION NEAR
      THE TOP OF THE HOUR CONTAINING PRELIMINARY DATA FROM ALBUQUERQUE
      AND OTHER STATIONS.  A FINAL VERSION WITH ADDITIONAL DATA IS
      ISSUED ABOUT 10 MINUTES AFTER THE HOUR.

NMZ501-503-504-510>518-281500-
NORTHWEST PLATEAU/NORTHCENTRAL MOUNTAINS

CITY           SKY/WX    TMP DP  RH WIND       PRES   REMARKS
FARMINGTON     CLEAR     29  26  89 NE7       30.27R WCI  22
LOS ALAMOS     PTCLDY    40  31  72 NW3       30.28S
SANTA FE       MOCLDY    36  31  82 N13       30.25R WCI  27
TAOS           PTCLDY    30  25  80 CALM      30.28R
ANGEL FIRE     FAIR      36  28  74 SW9       30.24F WCI  29

$$
NMZ402-403-502-505>509-281500-
WESTCENTRAL MOUNTAINS/SOUTHWEST MOUNTAINS

CITY           SKY/WX    TMP DP  RH WIND       PRES   REMARKS
GALLUP         CLEAR     29  27  92 CALM      30.32R
GRANTS         CLEAR     30  30 100 NW6       30.32R WCI  24
SILVER CITY    CLEAR     37  32  81 N12       30.28S WCI  30

$$
NMZ407-409-411-412-281500-
SOUTHERN DESERTS

CITY           SKY/WX    TMP DP  RH WIND       PRES   REMARKS
LORDSBURG      FAIR      36  34  93 W7        30.24S WCI  30
DEMING         CLEAR     35  33  92 CALM      30.24S
LAS CRUCES     CLEAR     43  39  86 NW8       30.25R
HOLLOMAN AFB   MOCLDY    36  34  93 NE6       30.23R WCI  31
ALAMOGORDO     MOCLDY    39  34  81 CALM      30.24F
T OR C         CLEAR     40  33  76 CALM      30.26R

$$
NMZ519>523-281500-
CENTRAL VALLEYS/CENTRAL HIGHLANDS

CITY           SKY/WX    TMP DP  RH WIND       PRES   REMARKS
ALBUQUERQUE    PTCLDY    35  29  78 SE5       30.27R WCI  31
DOUBLE EAGLE   CLEAR     34  30  86 CALM      30.28R
MORIARTY ARPT  FAIR      38  32  78 CALM      30.25R
CLINES CORNERS CLOUDY    39  32  76 NW28      30.18R WCI  28
BELEN          FAIR      31  29  93 W3        30.27R
SOCORRO        FAIR      35  32  88 CALM      30.26R

$$
NMZ524>526-539-540-281500-
SOUTHCENTRAL MOUNTAINS

CITY           SKY/WX    TMP DP  RH WIND       PRES   REMARKS
RUIDOSO        NOT AVBL

$$
NMZ527>531-281500-
NORTHEAST HIGHLANDS/NORTHEAST PLAINS

CITY           SKY/WX    TMP DP  RH WIND       PRES   REMARKS
LAS VEGAS      CLOUDY    43  24  47 VRB3      30.13S
RATON          MOCLDY    31  26  82 NE12      30.09R WCI  22
CLAYTON        CLOUDY    51  28  41 NW12      30.03R

$$
NMZ532>537-281500-
EASTCENTRAL PLAINS

CITY           SKY/WX    TMP DP  RH WIND       PRES   REMARKS
TUCUMCARI      MOCLDY    49  36  61 W13       30.04R
CANNON AFB     MOCLDY    45  36  70 W16       30.09F
CLOVIS AIRPORT MOCLDY    48  36  61 W21       30.07F

$$
NMZ028-029-538-281500-
SOUTHEAST PLAINS

CITY           SKY/WX    TMP DP  RH WIND       PRES   REMARKS
ROSWELL        CLOUDY    36  33  89 CALM      30.17R
ARTESIA        MOCLDY    39  39 100 NW6       30.17R WCI  35
CARLSBAD       PTCLDY    43  35  73 N3        30.14S
HOBBS          CLEAR     45  39  81 SW8       30.16R


$$


USA.gov is the U.S. government's official web portal to all federal, state and local government web resources and services.